• In Czech Republic
  • List of Countries
  • For 7 days
  • Water Temperature
  • Satellite Maps
  • Weather Map
  • Weather Widgets
  • user-avatar
    Login

    Hourly Weather Reczpol

    Today, 20 September, Thursday

    Time Temperature Precipitation Wind Pressure Humidity
    00:00 +16°C° 0 mm 2 mps 737 mmHg 77%
    01:00 +16°C° 0 mm 2 mps 737 mmHg 78%
    02:00 +15°C° 0 mm 1 mps 737 mmHg 82%
    03:00 +15°C° 0 mm 1 mps 737 mmHg 83%
    04:00 +15°C° 0 mm 1 mps 737 mmHg 84%
    05:00 +14°C° 0 mm 1 mps 737 mmHg 84%
    06:00 +15°C° 0 mm 1 mps 737 mmHg 82%
    07:00 +16°C° 0 mm 1 mps 737 mmHg 79%
    08:00 +18°C° 0 mm 1 mps 737 mmHg 76%
    09:00 +20°C° 0 mm 1 mps 738 mmHg 69%
    10:00 +22°C° 0 mm 1 mps 738 mmHg 61%
    11:00 +25°C° 0 mm 1 mps 738 mmHg 54%
    12:00 +25°C° 0 mm 1 mps 738 mmHg 51%
    13:00 +26°C° 0 mm 1 mps 738 mmHg 47%
    14:00 +27°C° 0 mm 1 mps 737 mmHg 44%
    15:00 +26°C° 0 mm 1 mps 737 mmHg 48%
    16:00 +26°C° 0 mm 1 mps 737 mmHg 52%
    17:00 +25°C° 0 mm 1 mps 737 mmHg 55%
    18:00 +23°C° 0 mm 1 mps 736 mmHg 60%
    19:00 +21°C° 0 mm 1 mps 736 mmHg 65%
    20:00 +19°C° 0 mm 1 mps 736 mmHg 69%
    21:00 +19°C° 0 mm 1 mps 736 mmHg 72%
    22:00 +18°C° 0 mm 1 mps 736 mmHg 75%
    23:00 +18°C° 0 mm 1 mps 736 mmHg 77%

    Tomorrow, 21 September, Friday

    Time Temperature Precipitation Wind Pressure Humidity
    00:00 +16°C° 0 mm 1 mps 736 mmHg 79%
    01:00 +16°C° 0 mm 1 mps 736 mmHg 81%
    02:00 +16°C° 0 mm 1 mps 736 mmHg 82%
    03:00 +16°C° 0 mm 1 mps 735 mmHg 83%
    04:00 +15°C° 0 mm 1 mps 735 mmHg 85%
    05:00 +15°C° 0 mm 1 mps 735 mmHg 86%
    06:00 +16°C° 0 mm 1 mps 735 mmHg 83%
    07:00 +18°C° 0 mm 1 mps 735 mmHg 81%
    08:00 +19°C° 0 mm 1 mps 735 mmHg 79%
    09:00 +20°C° 0 mm 2 mps 735 mmHg 71%
    10:00 +23°C° 0 mm 2 mps 735 mmHg 63%
    11:00 +25°C° 0 mm 3 mps 735 mmHg 55%
    12:00 +25°C° 0 mm 3 mps 735 mmHg 52%
    13:00 +26°C° 0 mm 3 mps 734 mmHg 49%
    14:00 +27°C° 0 mm 4 mps 734 mmHg 45%
    15:00 +26°C° 0 mm 3 mps 734 mmHg 49%
    16:00 +26°C° 0 mm 3 mps 733 mmHg 53%
    17:00 +25°C° 0 mm 3 mps 733 mmHg 57%
    18:00 +22°C° 0 mm 3 mps 733 mmHg 60%
    19:00 +21°C° 0 mm 3 mps 733 mmHg 63%
    20:00 +19°C° 0 mm 3 mps 733 mmHg 67%
    21:00 +19°C° 0 mm 3 mps 733 mmHg 66%
    22:00 +19°C° 0 mm 3 mps 732 mmHg 65%
    23:00 +18°C° 0 mm 3 mps 732 mmHg 65%

    Day after tomorrow, 22 September, Saturday

    Time Temperature Precipitation Wind Pressure Humidity
    00:00 +18°C° 0 mm 4 mps 732 mmHg 62%
    01:00 +18°C° 0 mm 4 mps 732 mmHg 60%
    02:00 +19°C° 0 mm 4 mps 732 mmHg 57%
    03:00 +19°C° 0 mm 4 mps 732 mmHg 55%
    04:00 +19°C° 0 mm 4 mps 733 mmHg 53%
    05:00 +19°C° 0 mm 4 mps 733 mmHg 52%
    06:00 +18°C° 0.2 mm 4 mps 733 mmHg 62%
    07:00 +15°C° 0.2 mm 4 mps 734 mmHg 73%
    08:00 +14°C° 0.2 mm 4 mps 735 mmHg 84%
    09:00 +13°C° 0.5 mm 3 mps 735 mmHg 85%
    10:00 +13°C° 0.5 mm 3 mps 736 mmHg 86%
    11:00 +13°C° 0.5 mm 2 mps 736 mmHg 87%
    12:00 +13°C° 1.6 mm 2 mps 736 mmHg 88%
    13:00 +12°C° 1.6 mm 2 mps 736 mmHg 89%
    14:00 +12°C° 1.6 mm 2 mps 736 mmHg 90%
    15:00 +12°C° 1.3 mm 2 mps 736 mmHg 90%
    16:00 +10°C° 1.3 mm 2 mps 736 mmHg 90%
    17:00 +10°C° 1.3 mm 2 mps 736 mmHg 90%
    18:00 +9°C° 0 mm 2 mps 736 mmHg 91%
    19:00 +9°C° 0 mm 2 mps 737 mmHg 92%
    20:00 +8°C° 0 mm 2 mps 737 mmHg 93%
    21:00 +8°C° 0 mm 2 mps 737 mmHg 92%
    22:00 +8°C° 0 mm 2 mps 737 mmHg 90%
    23:00 +8°C° 0 mm 2 mps 737 mmHg 88%

    23 September, Sunday

    Time Temperature Precipitation Wind Pressure Humidity
    00:00 +8°C° 0 mm 2 mps 737 mmHg 88%
    01:00 +7°C° 0 mm 2 mps 737 mmHg 87%
    02:00 +7°C° 0 mm 2 mps 737 mmHg 87%
    03:00 +7°C° 0 mm 2 mps 737 mmHg 87%
    04:00 +7°C° 0 mm 2 mps 737 mmHg 87%
    05:00 +7°C° 0 mm 2 mps 737 mmHg 87%
    06:00 +8°C° 0 mm 3 mps 737 mmHg 85%
    07:00 +9°C° 0 mm 3 mps 737 mmHg 83%
    08:00 +9°C° 0 mm 3 mps 737 mmHg 81%
    09:00 +11°C° 0 mm 3 mps 737 mmHg 73%
    10:00 +13°C° 0 mm 4 mps 737 mmHg 65%
    11:00 +15°C° 0 mm 4 mps 737 mmHg 57%
    12:00 +16°C° 0 mm 5 mps 736 mmHg 55%
    13:00 +16°C° 0 mm 5 mps 735 mmHg 53%
    14:00 +17°C° 0 mm 5 mps 735 mmHg 51%
    15:00 +16°C° 0 mm 5 mps 734 mmHg 55%
    16:00 +17°C° 0 mm 4 mps 733 mmHg 59%
    17:00 +15°C° 0 mm 4 mps 733 mmHg 62%
    18:00 +15°C° 0 mm 5 mps 732 mmHg 62%
    19:00 +15°C° 0 mm 6 mps 731 mmHg 61%
    20:00 +15°C° 0 mm 7 mps 731 mmHg 61%
    21:00 +14°C° 0.6 mm 7 mps 730 mmHg 65%
    22:00 +13°C° 0.6 mm 8 mps 729 mmHg 69%
    23:00 +13°C° 0.6 mm 9 mps 728 mmHg 74%

    24 September, Monday

    Time Temperature Precipitation Wind Pressure Humidity
    00:00 +13°C° 0 mm 9 mps 727 mmHg 67%
    01:00 +15°C° 0 mm 9 mps 727 mmHg 61%
    02:00 +16°C° 0 mm 10 mps 726 mmHg 54%
    03:00 +16°C° 0.3 mm 10 mps 725 mmHg 60%
    04:00 +14°C° 0.3 mm 10 mps 724 mmHg 65%
    05:00 +14°C° 0.3 mm 11 mps 723 mmHg 71%
    06:00 +14°C° 1.4 mm 10 mps 723 mmHg 75%
    07:00 +13°C° 1.4 mm 10 mps 724 mmHg 79%
    08:00 +13°C° 1.4 mm 10 mps 724 mmHg 83%
    09:00 +11°C° 0.2 mm 9 mps 726 mmHg 82%
    10:00 +10°C° 0.2 mm 9 mps 727 mmHg 81%
    11:00 +9°C° 0.2 mm 8 mps 729 mmHg 80%
    12:00 +8°C° 0.1 mm 9 mps 730 mmHg 77%
    13:00 +8°C° 0.1 mm 9 mps 731 mmHg 74%
    14:00 +8°C° 0.1 mm 9 mps 732 mmHg 71%
    15:00 +8°C° 0 mm 9 mps 733 mmHg 68%
    16:00 +8°C° 0 mm 9 mps 733 mmHg 64%
    17:00 +9°C° 0 mm 8 mps 734 mmHg 61%
    18:00 +9°C° 0 mm 7 mps 735 mmHg 63%
    19:00 +9°C° 0 mm 7 mps 736 mmHg 66%
    20:00 +9°C° 0 mm 6 mps 736 mmHg 68%
    21:00 +8°C° 0 mm 5 mps 737 mmHg 71%
    22:00 +7°C° 0 mm 4 mps 737 mmHg 75%
    23:00 +6°C° 0 mm 4 mps 738 mmHg 78%

    25 September, Tuesday

    Time Temperature Precipitation Wind Pressure Humidity
    00:00 +6°C° 0 mm 4 mps 738 mmHg 81%
    01:00 +6°C° 0 mm 4 mps 739 mmHg 84%
    02:00 +5°C° 0 mm 3 mps 739 mmHg 87%
    03:00 +5°C° 0 mm 3 mps 739 mmHg 88%
    04:00 +5°C° 0 mm 3 mps 739 mmHg 89%
    05:00 +4°C° 0 mm 3 mps 740 mmHg 91%
    06:00 +5°C° 0 mm 4 mps 740 mmHg 88%
    07:00 +5°C° 0 mm 5 mps 740 mmHg 85%
    08:00 +6°C° 0 mm 5 mps 740 mmHg 82%
    09:00 +7°C° 0.1 mm 6 mps 741 mmHg 77%
    10:00 +7°C° 0.1 mm 6 mps 741 mmHg 73%
    11:00 +8°C° 0.1 mm 6 mps 741 mmHg 68%
    12:00 +9°C° 0.2 mm 6 mps 741 mmHg 64%
    13:00 +10°C° 0.2 mm 6 mps 740 mmHg 61%
    14:00 +10°C° 0.2 mm 6 mps 740 mmHg 57%
    15:00 +10°C° 0.1 mm 5 mps 740 mmHg 59%
    16:00 +10°C° 0.1 mm 5 mps 740 mmHg 60%
    17:00 +11°C° 0.1 mm 4 mps 740 mmHg 61%
    18:00 +9°C° 0 mm 3 mps 740 mmHg 65%
    19:00 +8°C° 0 mm 3 mps 740 mmHg 69%
    20:00 +7°C° 0 mm 2 mps 740 mmHg 73%
    21:00 +7°C° 0 mm 2 mps 741 mmHg 73%
    22:00 +7°C° 0 mm 3 mps 741 mmHg 74%
    23:00 +7°C° 0 mm 3 mps 741 mmHg 74%
    Show more